GW0235 Weather Reports


Display with metric or nautical units.
time (UTC)temp
F
wind
direction
speed
MPH
gust
MPH
rain 1hr
in
rain 24hr
in
rain mn
in
humidity
%
barometer
mb
20260505212100 74 341 5.0 11.0 0.00 0.00 0.00 38 1013.0
20260505211558 74 347 4.0 11.0 0.00 0.00 0.00 36 1013.0
20260505211100 73 340 5.0 11.0 0.00 0.00 0.00 36 1013.0
20260505210559 74 352 4.0 9.0 0.00 0.00 0.00 41 1013.0
20260505210109 74 360 5.0 9.0 0.00 0.00 0.00 43 1012.9
20260505205559 74 46 4.0 10.0 0.00 0.00 0.00 39 1013.0
20260505205100 73 78 2.0 15.0 0.00 0.00 0.00 39 1012.9
20260505204611 73 5 5.0 15.0 0.00 0.00 0.00 41 1013.0
20260505204058 73 40 4.0 11.0 0.00 0.00 0.00 41 1013.0
20260505203603 73 65 5.0 11.0 0.00 0.00 0.00 45 1012.9
20260505203108 73 9 5.0 11.0 0.00 0.00 0.00 44 1013.0
20260505202600 72 352 6.0 11.0 0.00 0.00 0.00 44 1013.0
20260505202100 72 71 3.0 11.0 0.00 0.00 0.00 45 1013.0
20260505201558 71 336 6.0 13.0 0.00 0.00 0.00 46 1013.0
20260505201100 72 337 8.0 13.0 0.00 0.00 0.00 45 1013.0
20260505200603 72 13 7.0 11.0 0.00 0.00 0.00 46 1013.1
20260505200058 72 20 4.0 10.0 0.00 0.00 0.00 45 1013.1
20260505195559 72 319 4.0 11.0 0.00 0.00 0.00 46 1013.1
20260505195059 72 5 5.0 12.0 0.00 0.00 0.00 46 1013.2
20260505194604 71 326 6.0 12.0 0.00 0.00 0.00 45 1013.3
20260505194100 71 313 6.0 12.0 0.00 0.00 0.00 46 1013.2
20260505193600 71 352 4.0 12.0 0.00 0.00 0.00 47 1013.3
20260505193103 71 34 4.0 8.0 0.00 0.00 0.00 46 1013.3
20260505192559 71 51 1.0 9.0 0.00 0.00 0.00 49 1013.2
20260505192100 71 24 3.0 9.0 0.00 0.00 0.00 48 1013.3
20260505191600 70 337 4.0 9.0 0.00 0.00 0.00 53 1013.3
20260505191059 70 350 2.0 8.0 0.00 0.00 0.00 50 1013.2
20260505190559 70 328 4.0 10.0 0.00 0.00 0.00 49 1013.2
20260505190059 69 273 2.0 10.0 0.00 0.00 0.00 49 1013.3
20260505185600 69 317 5.0 11.0 0.00 0.00 0.00 49 1013.3
20260505185100 70 352 4.0 11.0 0.00 0.00 0.00 48 1013.2
20260505184600 70 9 4.0 11.0 0.00 0.00 0.00 50 1013.2
20260505184102 70 323 3.0 9.0 0.00 0.00 0.00 47 1013.1
20260505183559 70 352 2.0 9.0 0.00 0.00 0.00 49 1013.1
20260505183059 70 335 3.0 9.0 0.00 0.00 0.00 49 1013.0
20260505182559 69 349 4.0 9.0 0.00 0.00 0.00 48 1013.0
20260505182100 69 352 5.0 9.0 0.00 0.00 0.00 49 1013.0
20260505181614 69 348 4.0 10.0 0.00 0.00 0.00 50 1013.0
20260505181100 69 335 4.0 10.0 0.00 0.00 0.00 51 1013.0
20260505180600 69 17 3.0 10.0 0.00 0.00 0.00 51 1012.9
20260505180100 68 41 2.0 8.0 0.00 0.00 0.00 52 1012.9
20260505175559 68 296 3.0 8.0 0.00 0.00 0.00 52 1012.9
20260505175059 68 332 4.0 10.0 0.00 0.00 0.00 53 1012.8
20260505174600 68 288 2.0 10.0 0.00 0.00 0.00 53 1012.8
20260505174100 67 285 3.0 8.0 0.00 0.00 0.00 56 1012.7
20260505173559 67 327 3.0 8.0 0.00 0.00 0.00 54 1012.8
20260505173100 67 308 2.0 6.0 0.00 0.00 0.00 56 1012.9
20260505172602 67 339 1.0 8.0 0.00 0.00 0.00 58 1012.8
20260505172059 66 329 2.0 8.0 0.00 0.00 0.00 55 1012.8
20260505171558 66 299 3.0 11.0 0.00 0.00 0.00 56 1012.7
20260505171059 66 306 2.0 11.0 0.00 0.00 0.00 55 1012.7
20260505170600 66 317 4.0 11.0 0.00 0.00 0.00 56 1012.7
20260505170105 66 298 4.0 8.0 0.00 0.00 0.00 58 1012.7
20260505165600 65 319 3.0 8.0 0.00 0.00 0.00 59 1012.7
20260505165059 65 290 2.0 10.0 0.00 0.00 0.00 58 1012.7
20260505164602 65 300 3.0 10.0 0.00 0.00 0.00 59 1012.7
20260505164059 65 312 3.0 10.0 0.00 0.00 0.00 59 1012.7
20260505163600 64 281 4.0 10.0 0.00 0.00 0.00 58 1012.8
20260505163057 64 319 6.0 10.0 0.00 0.00 0.00 60 1012.7
20260505162558 64 309 4.0 9.0 0.00 0.00 0.00 59 1012.6
20260505162059 64 298 4.0 9.0 0.00 0.00 0.00 60 1012.6
20260505161559 64 287 5.0 9.0 0.00 0.00 0.00 60 1012.6
20260505161100 63 273 5.0 10.0 0.00 0.00 0.00 61 1012.5
20260505160600 63 299 3.0 10.0 0.00 0.00 0.00 60 1012.6
20260505153111 62 244 3.0 7.0 0.00 0.00 0.00 63 1012.4
20260505152559 61 243 2.0 6.0 0.00 0.00 0.00 66 1012.4
20260505152059 61 214 3.0 5.0 0.00 0.00 0.00 68 1012.3
20260505151600 60 198 2.0 6.0 0.00 0.00 0.00 67 1012.4
20260505151059 60 205 3.0 6.0 0.00 0.00 0.00 69 1012.3
20260505150600 60 175 3.0 7.0 0.00 0.00 0.00 69 1012.3
20260505140559 53 159 1.0 5.0 0.00 0.00 0.00 77 1011.7
20260505140108 52 159 1.0 4.0 0.00 0.00 0.00 78 1011.6
20260505130110 50 0 0.0 1.0 0.00 0.00 0.00 77 1011.1
20260505124618 51 0 1.0 2.0 0.00 0.00 0.00 76 1010.8
20260505124058 51 157 0.0 2.0 0.00 0.00 0.00 77 1010.8
20260505123600 51 0 0.0 2.0 0.00 0.00 0.00 77 1010.8
20260505123118 51 157 0.0 1.0 0.00 0.00 0.00 77 1010.9
20260505122601 51 0 0.0 1.0 0.00 0.00 0.00 78 1010.8
20260505122058 51 0 0.0 1.0 0.00 0.00 0.00 77 1010.9
20260505121600 51 0 0.0 1.0 0.00 0.00 0.00 78 1010.8
20260505121058 51 157 0.0 0.0 0.00 0.00 0.00 78 1010.9
20260505120557 51 0 0.0 0.0 0.00 0.00 0.00 77 1010.8
20260505120107 51 0 0.0 0.0 0.00 0.00 0.00 76 1010.8
20260505115557 51 0 0.0 0.0 0.00 0.00 0.00 76 1010.8
20260505115057 51 0 0.0 0.0 0.00 0.00 0.00 76 1010.7
20260505114559 52 0 0.0 0.0 0.00 0.00 0.00 76 1010.7
20260505114058 52 0 0.0 0.0 0.00 0.00 0.00 76 1010.7
20260505113558 52 0 0.0 0.0 0.00 0.00 0.00 76 1010.7
20260505113114 52 0 0.0 1.0 0.00 0.00 0.00 75 1010.7
20260505112602 52 0 0.0 1.0 0.00 0.00 0.00 75 1010.8
20260505112059 53 0 0.0 1.0 0.00 0.00 0.00 75 1010.8
20260505111601 53 0 0.0 1.0 0.00 0.00 0.00 75 1010.7
20260505111100 53 0 0.0 0.0 0.00 0.00 0.00 75 1010.7
20260505110559 53 0 0.0 2.0 0.00 0.00 0.00 74 1010.7
20260505102057 53 157 0.0 3.0 0.00 0.00 0.00 73 1010.2
20260505101558 53 157 0.0 5.0 0.00 0.00 0.00 73 1010.2
20260505101058 53 0 1.0 5.0 0.00 0.00 0.00 73 1010.2
20260505100558 53 157 1.0 3.0 0.00 0.00 0.00 74 1010.2
20260505095557 53 157 1.0 3.0 0.00 0.00 0.00 74 1010.1
20260505095057 53 157 1.0 3.0 0.00 0.00 0.00 74 1010.1
20260505094600 54 0 0.0 3.0 0.00 0.00 0.00 74 1010.2
20260505094057 54 157 1.0 3.0 0.00 0.00 0.00 74 1010.2
20260505093557 54 0 1.0 3.0 0.00 0.00 0.00 74 1010.2
20260505093105 54 157 0.0 3.0 0.00 0.00 0.00 74 1010.2
20260505092557 54 0 0.0 5.0 0.00 0.00 0.00 74 1010.1
20260505092059 54 157 1.0 5.0 0.00 0.00 0.00 74 1010.1
20260505091558 54 237 0.0 4.0 0.00 0.00 0.00 74 1010.1
20260505091057 54 237 1.0 4.0 0.00 0.00 0.00 74 1010.2
20260505090557 54 237 2.0 4.0 0.00 0.00 0.00 75 1010.1
20260505090057 53 236 1.0 4.0 0.00 0.00 0.00 75 1010.1
20260505085558 54 236 2.0 4.0 0.00 0.00 0.00 75 1010.1
20260505085058 54 243 2.0 4.0 0.00 0.00 0.00 75 1010.2
20260505084558 54 234 1.0 4.0 0.00 0.00 0.00 74 1010.1
20260505084057 54 241 1.0 4.0 0.00 0.00 0.00 74 1010.1
20260505083557 54 242 0.0 3.0 0.00 0.00 0.00 74 1010.2
20260505083105 54 241 1.0 5.0 0.00 0.00 0.00 74 1010.2
20260505082557 54 275 2.0 5.0 0.00 0.00 0.00 73 1010.3
20260505082058 55 244 3.0 5.0 0.00 0.00 0.00 73 1010.2
20260505081600 55 247 1.0 3.0 0.00 0.00 0.00 71 1010.2
20260505081100 56 202 1.0 5.0 0.00 0.00 0.00 70 1010.3
20260505080602 56 0 1.0 5.0 0.00 0.00 0.00 70 1010.3
20260505080113 56 205 1.0 6.0 0.00 0.00 0.00 70 1010.3
20260505075556 56 281 1.0 6.0 0.00 0.00 0.00 69 1010.3
20260505075102 56 268 3.0 6.0 0.00 0.00 0.00 70 1010.3
20260505074603 57 284 2.0 4.0 0.00 0.00 0.00 68 1010.3
20260505074100 58 160 0.0 4.0 0.00 0.00 0.00 68 1010.3
20260505073602 58 160 1.0 6.0 0.00 0.00 0.00 67 1010.3
20260505073110 58 160 3.0 6.0 0.00 0.00 0.00 66 1010.2
20260505072600 59 170 2.0 6.0 0.00 0.00 0.00 66 1010.3
20260505072100 59 0 3.0 8.0 0.00 0.00 0.00 66 1010.1
20260505071603 59 252 3.0 11.0 0.00 0.00 0.00 66 1009.9
20260505071100 59 251 3.0 12.0 0.00 0.00 0.00 66 1009.9
20260505070600 59 220 3.0 12.0 0.00 0.00 0.00 66 1009.8
20260505070111 59 234 2.0 6.0 0.00 0.00 0.00 66 1009.8
20260505065601 59 219 2.0 7.0 0.00 0.00 0.00 66 1009.8
20260505065100 58 189 3.0 7.0 0.00 0.00 0.00 67 1009.8
20260505064603 58 190 2.0 6.0 0.00 0.00 0.00 66 1009.9
20260505064059 59 173 2.0 7.0 0.00 0.00 0.00 66 1009.7
20260505063558 59 175 2.0 7.0 0.00 0.00 0.00 65 1009.7
20260505063102 59 180 3.0 5.0 0.00 0.00 0.00 65 1009.6
20260505062600 59 150 1.0 9.0 0.00 0.00 0.00 65 1009.6
20260505062057 59 303 2.0 11.0 0.00 0.00 0.00 65 1009.5
20260505061601 60 275 4.0 13.0 0.00 0.00 0.00 65 1009.4
20260505061058 60 311 7.0 13.0 0.00 0.00 0.00 64 1009.4
20260505060600 60 294 7.0 13.0 0.00 0.00 0.00 64 1009.2
20260505060059 60 306 7.0 14.0 0.00 0.00 0.00 64 1009.2
20260505055605 60 291 9.0 14.0 0.00 0.00 0.00 64 1009.2
20260505055103 60 297 8.0 13.0 0.00 0.00 0.00 64 1009.2
20260505054557 60 309 8.0 14.0 0.00 0.00 0.00 63 1009.1
20260505054100 60 284 8.0 14.0 0.00 0.00 0.00 63 1009.2
20260505053559 60 317 9.0 14.0 0.00 0.00 0.00 64 1009.2
20260505053116 60 296 8.0 16.0 0.00 0.00 0.00 64 1009.1
20260505052559 60 274 8.0 16.0 0.00 0.00 0.00 63 1009.1
20260505052059 61 295 8.0 13.0 0.00 0.00 0.00 62 1009.1
20260505051557 61 319 7.0 13.0 0.00 0.00 0.00 61 1009.1
20260505051100 61 294 7.0 12.0 0.00 0.00 0.00 61 1009.1
20260505050609 61 305 5.0 10.0 0.00 0.00 0.00 61 1009.0
20260505050113 61 303 6.0 10.0 0.00 0.00 0.00 61 1009.1
20260505041558 63 318 4.0 9.0 0.00 0.00 0.00 55 1009.0
20260505041056 63 319 5.0 10.0 0.00 0.00 0.00 55 1008.9
20260505040558 64 304 5.0 10.0 0.00 0.00 0.00 54 1008.9
20260505040101 64 319 5.0 9.0 0.00 0.00 0.00 53 1008.8
20260505035600 64 293 6.0 11.0 0.00 0.00 0.00 53 1008.8
20260505035056 64 317 5.0 11.0 0.00 0.00 0.00 53 1008.8
20260505034617 64 317 4.0 9.0 0.00 0.00 0.00 53 1008.7
20260505034058 64 315 5.0 11.0 0.00 0.00 0.00 53 1008.7
20260505033558 64 337 5.0 11.0 0.00 0.00 0.00 53 1008.7
20260505033057 64 327 4.0 9.0 0.00 0.00 0.00 53 1008.6
20260505032558 65 319 4.0 8.0 0.00 0.00 0.00 52 1008.6
20260505032101 65 319 4.0 8.0 0.00 0.00 0.00 52 1008.4
20260505031600 65 321 4.0 9.0 0.00 0.00 0.00 52 1008.4
20260505031059 66 319 5.0 9.0 0.00 0.00 0.00 51 1008.6
20260505030601 66 314 5.0 10.0 0.00 0.00 0.00 51 1008.5
20260505030103 66 299 6.0 12.0 0.00 0.00 0.00 50 1008.5
20260505025600 67 317 5.0 12.0 0.00 0.00 0.00 49 1008.3
20260505025058 67 295 4.0 9.0 0.00 0.00 0.00 49 1008.3
20260505024558 68 311 4.0 9.0 0.00 0.00 0.00 48 1008.4
20260505024058 69 327 3.0 9.0 0.00 0.00 0.00 46 1008.3
20260505023559 70 309 4.0 12.0 0.00 0.00 0.00 44 1008.3
20260505023103 71 300 6.0 12.0 0.00 0.00 0.00 42 1008.3
20260505022558 71 321 8.0 12.0 0.00 0.00 0.00 40 1008.4
20260505022058 72 296 5.0 11.0 0.00 0.00 0.00 40 1008.3
20260505021604 72 310 6.0 12.0 0.00 0.00 0.00 39 1008.3
20260505021057 73 315 6.0 12.0 0.00 0.00 0.00 38 1008.3
20260505020558 73 322 8.0 12.0 0.00 0.00 0.00 37 1008.3
20260505015558 75 337 3.0 8.0 0.00 0.00 0.00 29 1008.3
20260505015059 75 352 3.0 9.0 0.00 0.00 0.00 30 1008.3
20260505014600 75 348 3.0 9.0 0.00 0.00 0.00 30 1008.3
20260505014058 75 9 5.0 9.0 0.00 0.00 0.00 30 1008.3
20260505013601 75 352 5.0 9.0 0.00 0.00 0.00 30 1008.4
20260505013102 76 14 4.0 7.0 0.00 0.00 0.00 30 1008.4
20260505012558 76 17 3.0 9.0 0.00 0.00 0.00 27 1008.3
20260505012100 76 15 3.0 9.0 0.00 0.00 0.00 27 1008.4
20260505011612 76 350 5.0 9.0 0.00 0.00 0.00 27 1008.5
20260505011101 76 28 4.0 11.0 0.00 0.00 0.00 26 1008.5
20260505010558 76 340 5.0 11.0 0.00 0.00 0.00 26 1008.5
20260505005600 76 326 3.0 9.0 0.00 0.00 0.00 25 1008.5
20260505005059 77 352 4.0 9.0 0.00 0.00 0.00 25 1008.5
20260505004610 77 332 5.0 9.0 0.00 0.00 0.00 25 1008.5
20260505004057 77 320 4.0 11.0 0.00 0.00 0.00 27 1008.6
20260505003558 77 5 5.0 11.0 0.00 0.00 0.00 26 1008.6
20260505003058 77 331 2.0 8.0 0.00 0.00 0.00 25 1008.6
20260505002557 77 350 3.0 10.0 0.00 0.00 0.00 26 1008.6
20260505002100 77 360 5.0 10.0 0.00 0.00 0.00 26 1008.6
20260505001629 77 334 5.0 10.0 0.00 0.00 0.00 27 1008.7
20260505001101 77 19 3.0 10.0 0.00 0.00 0.00 26 1008.7
20260505000600 77 350 4.0 9.0 0.00 0.00 0.00 26 1008.8
20260505000110 77 342 5.0 12.0 0.00 0.00 0.00 27 1008.8
20260504235602 77 350 5.0 12.0 0.00 0.00 0.00 27 1008.8
20260504235058 77 327 6.0 11.0 0.00 0.00 0.00 27 1008.9
20260504234603 77 24 3.0 10.0 0.00 0.00 0.00 29 1008.8
20260504234101 77 5 4.0 10.0 0.00 0.00 0.00 28 1008.8
20260504233602 77 12 5.0 12.0 0.00 0.00 0.00 28 1008.8
20260504233113 77 333 5.0 12.0 0.00 0.00 0.00 28 1008.8
20260504232559 77 332 5.0 12.0 0.00 0.00 0.00 28 1008.9
20260504232059 77 68 4.0 11.0 0.00 0.00 0.00 27 1009.0
20260504231605 77 32 6.0 11.0 0.00 0.00 0.00 28 1009.0
20260504231100 77 15 3.0 11.0 0.00 0.00 0.00 31 1009.0
20260504230600 77 76 4.0 11.0 0.00 0.00 0.00 26 1009.0
20260504230104 77 46 7.0 11.0 0.00 0.00 0.00 29 1009.1
20260504225601 77 41 5.0 11.0 0.00 0.00 0.00 31 1009.0
20260504225059 77 342 3.0 9.0 0.00 0.00 0.00 28 1009.1
20260504224600 77 300 5.0 9.0 0.00 0.00 0.00 29 1009.2
20260504224100 77 348 3.0 9.0 0.00 0.00 0.00 28 1009.2
20260504223600 77 41 4.0 12.0 0.00 0.00 0.00 29 1009.3
20260504223101 77 336 4.0 12.0 0.00 0.00 0.00 30 1009.4
20260504222558 77 317 6.0 12.0 0.00 0.00 0.00 28 1009.5
20260504222100 77 313 4.0 10.0 0.00 0.00 0.00 28 1009.4
20260504221558 77 328 3.0 8.0 0.00 0.00 0.00 28 1009.5
20260504221058 77 329 4.0 11.0 0.00 0.00 0.00 28 1009.5
20260504220600 77 340 4.0 11.0 0.00 0.00 0.00 32 1009.5
20260504220100 76 315 3.0 10.0 0.00 0.00 0.00 29 1009.5
20260504215558 76 320 6.0 11.0 0.00 0.00 0.00 29 1009.5
20260504215059 76 35 5.0 12.0 0.00 0.00 0.00 32 1009.6
20260504214607 76 24 6.0 12.0 0.00 0.00 0.00 33 1009.6
20260504214100 76 352 5.0 10.0 0.00 0.00 0.00 31 1009.7
20260504213601 76 349 3.0 12.0 0.00 0.00 0.00 31 1009.7
20260504213101 76 56 7.0 12.0 0.00 0.00 0.00 29 1009.8
20260504212600 76 351 4.0 13.0 0.00 0.00 0.00 32 1009.8